Portada
METAR-TAF:

METAR-TAF

Aeroports :

Kashmar, Iran

latitud: 35-16-14N, longitud: 58-28-24E, altitud: 1110 m

Observació

L'informe es va fer fa 56 minuts, a les 00:00 UTC
Vent 2 kt del Est
Temperatura 3°C
Humitat 81%
Pressió 1023 hPa

METAR: OIMQ 060000Z AUTO 09002KT //// // ////// 03/00 Q1023

Hora: 04:26 (00:56 UTC)


TAF: manca

Observacions i pronòstics meteorològics de més de 4000 aeroports (METAR i TAF).

Les estacions disponibles són els punts grocs i vermells al mapa.

Posi el ratolí al punt desitjat per veure el nom de l'estació.

Feu clic per veure les observacions i els pronòstics meteorològics.

Per canviar el mapa: feu clic els botons verds amb una creu de color negre per apropar; al botó verd amb un guió per allunyar la imatge; o en les fletxes verdes per a mapes adjacents.


METAR-TAF: